RH
62 66 56 49 46 46 48 52 57 57 54 60 81 84 71 64 98 79 70 72 74 71 82 61 59 61 57 44 46 50 50 42 40 42 49 52 46 47 49 52 46 40 41
73 71 68 52 45 49 49 46 45 54 50 53 75 85 72 61 76 100 81 84 100 100 89 78 83 86 70 68 58 57 52 55 55 58 61 65 67 57 48 52 56 49 44
65 61 67 61 51 49 41 37 32 30 34 40 54 69 76 60 100 100 100 100 100 91 82 87 87 78 72 82 87 84 71 60 67 72 71 70 71 73 73 69 61 53 53
54 51 50 55 50 44 36 26 21 21 26 30 31 44 62 68 100 100 100 100 97 100 100 97 85 96 99 95 94 94 80 76 79 78 84 90 91 82 78 82 75 76 72
47 43 48 49 42 40 27 21 18 18 17 18 20 24 37 47 67 71 75 83 86 87 97 100 100 100 98 94 100 100 100 100 100 100 100 100 95 86 87 89 89 76 73
51 40 36 33 34 29 27 20 18 18 17 20 27 29 35 39 33 42 43 49 46 46 72 90 100 100 100 100 98 100 100 100 100 100 100 100 90 95 94 98 95 89 100
44 37 34 31 31 30 31 23 20 21 19 21 20 19 19 21 24 27 30 22 35 61 73 91 91 89 99 100 100 100 85 74 89 90 87 75 43 67 99 100 100 99 89
42 35 35 32 32 31 32 28 24 25 25 24 24 23 22 23 25 27 41 51 85 98 97 100 100 98 92 86 85 74 64 67 70 57 45 33 28 50 66 93 100 100 99
41 37 36 34 33 33 33 34 32 30 29 31 31 31 30 29 27 23 24 29 33 41 68 83 76 66 56 55 71 72 62 61 57 57 49 45 34 39 46 68 90 93 95
42 41 41 39 37 37 38 38 36 38 38 36 36 37 37 36 36 36 39 38 39 41 40 37 42 52 53 68 76 74 72 75 86 90 94 85 74 60 51 54 58 58 64
49 48 48 44 42 41 43 44 44 42 44 43 44 44 44 42 41 41 43 42 43 45 46 48 49 46 45 50 54 63 66 70 76 79 88 95 91 87 86 88 82 67 51
46 51 52 49 45 44 44 47 48 50 50 51 52 52 52 52 51 49 48 47 48 48 48 46 46 52 56 49 46 49 52 61 66 71 67 71 80 83 84 87 83 76 76
40 45 54 60 56 51 49 52 57 57 53 54 55 55 55 57 60 60 58 58 56 54 54 53 53 52 51 49 50 48 50 57 60 61 60 61 58 66 70 70 70 86 87
36 38 44 48 55 67 60 54 53 57 55 55 60 62 64 64 63 62 66 64 60 58 60 63 62 70 72 62 61 60 61 56 50 51 58 59 62 62 61 59 61 65 67
44 42 37 33 36 44 52 60 63 63 67 68 62 60 59 54 52 55 61 62 59 60 60 58 57 58 59 62 62 64 66 67 70 62 58 56 53 53 53 52 51 46 51
36 38 39 37 36 40 41 40 37 39 43 44 43 45 44 45 42 37 40 46 60 59 56 56 54 56 59 58 53 52 55 56 59 60 63 64 57 53 53 62 66 66 57
22 24 25 34 36 46 43 42 41 39 37 36 36 37 36 38 42 44 44 38 34 36 39 41 45 39 34 34 43 51 49 49 52 49 49 56 66 71 64 51 55 65 61
20 45 67 76 78 64 45 34 29 39 43 43 42 41 44 46 45 46 46 48 49 45 40 36 34 34 39 36 33 39 51 52 47 51 49 50 53 64 75 79 73 62 69
19 19 24 25 31 30 22 24 28 39 39 40 44 51 51 50 45 44 44 41 42 45 43 41 39 38 36 37 40 40 34 34 36 34 36 37 40 43 45 53 64 62 59
19 20 21 20 20 20 21 21 22 24 27 31 31 30 30 27 25 28 30 30 31 36 36 33 31 29 29 28 22 21 25 24 22 21 20 18 15 16 19 20 23 26 35
19 21 21 21 23 24 24 24 25 26 22 21 23 23 21 19 17 15 14 14 13 13 14 14 13 12 11 10 9 10 10 11 10 10 9 10 12 12 11 11 10 11 11
21 20 21 23 24 26 28 27 25 24 22 21 21 20 19 18 18 16 15 14 13 12 10 10 10 10 11 11 11 11 12 12 12 12 12 12 12 13 13 13 13 12 12
21 21 23 24 27 28 30 32 33 30 29 26 23 22 21 20 19 18 17 16 15 15 16 16 15 14 14 12 12 13 13 12 12 13 14 14 15 15 15 15 16 16 14
23 22 26 30 36 42 40 36 31 29 28 26 26 28 27 26 27 28 29 26 22 19 16 16 15 15 15 15 16 17 18 20 21 21 21 21 21 21 23 25 23 21 20
29 32 37 39 36 35 32 30 29 32 32 32 32 32 32 29 24 21 20 21 19 19 19 18 17 18 20 22 20 19 17 15 15 15 17 17 20 24 24 25 25 24 26
31 33 32 32 33 35 37 35 35 38 37 34 29 26 26 28 29 28 29 31 27 22 19 18 16 17 18 20 22 23 24 26 24 20 21 22 19 15 16 18 22 28 28
Wind_Speed
33 32 33 34 34 34 35 36 37 37 38 38 32 30 32 27 26 25 24 22 22 19 19 19 20 19 17 15 14 14 15 16 16 16 17 18 20 20 19 20 21 20 21
34 34 36 37 38 38 38 39 38 38 38 39 35 35 33 28 27 26 27 27 25 24 22 22 23 24 23 20 22 23 22 21 21 21 21 20 20 22 23 24 23 24 25
36 36 38 39 40 40 38 37 40 39 35 34 35 35 32 27 26 26 27 27 27 28 29 28 26 26 26 27 28 28 28 27 26 26 26 27 26 26 27 26 26 27 27
37 38 39 40 41 39 36 37 37 35 34 33 33 31 32 27 28 29 30 29 29 30 31 31 32 32 32 33 32 33 33 33 33 33 32 30 31 33 33 30 30 30 29
39 39 40 40 39 37 34 35 34 32 31 32 32 31 28 28 30 32 33 34 34 36 35 34 35 35 36 35 34 33 34 34 32 32 33 36 38 38 37 36 34 32 31
42 42 39 37 36 32 33 33 31 29 29 30 29 27 27 29 31 33 35 36 37 36 37 35 34 37 40 41 40 39 39 37 35 36 38 40 44 43 40 40 38 34 33
41 41 39 36 33 32 35 33 29 28 27 26 26 27 27 27 27 28 29 30 31 33 34 36 37 35 36 41 44 44 43 43 42 41 43 43 44 44 42 41 40 39 38
42 41 38 35 35 34 35 34 31 30 26 26 25 25 26 26 27 28 27 27 26 25 28 28 30 30 31 32 35 35 34 35 37 38 39 40 40 41 42 41 41 41 42
43 41 40 38 38 38 38 36 34 33 31 30 29 29 29 30 31 31 31 30 30 28 28 28 29 28 28 29 29 30 30 31 33 34 35 34 33 35 38 40 42 44 45
44 43 42 41 40 40 41 40 38 37 36 35 34 35 35 35 35 35 34 35 35 34 33 34 35 32 32 32 31 32 34 36 36 37 36 35 33 32 32 34 38 42 42
46 46 44 44 43 42 42 43 43 42 42 42 42 42 41 41 41 41 41 41 41 41 42 41 41 41 41 40 39 38 40 40 41 42 41 39 37 37 36 37 36 36 38
51 50 50 49 48 48 47 47 47 46 46 47 48 47 47 47 47 47 47 47 47 48 48 48 48 48 49 50 48 46 46 46 46 47 47 46 46 44 43 42 41 41 40
54 53 54 55 55 54 53 52 51 51 53 54 54 54 54 54 53 53 54 54 54 54 55 55 56 56 57 57 56 56 54 53 53 54 54 54 52 52 51 49 48 45 45
58 58 59 59 59 60 60 60 60 60 61 60 59 60 61 61 61 61 61 61 62 63 62 62 63 63 64 64 63 64 64 65 63 63 63 62 61 57 57 57 55 53 53
60 61 61 61 62 63 63 64 65 66 66 67 67 67 66 67 68 68 70 71 70 69 69 70 71 72 72 72 71 70 71 71 71 70 70 67 65 64 64 65 65 64 63
62 62 62 63 62 63 64 67 68 70 70 70 70 71 72 72 72 72 72 73 73 73 74 75 75 73 74 74 76 76 75 74 75 76 77 76 74 74 74 72 72 70 68
63 63 62 64 65 65 66 66 66 67 68 68 68 69 70 69 68 68 70 72 75 78 79 79 79 81 80 79 79 80 80 79 78 79 79 80 76 75 77 74 72 76 76
63 64 66 66 65 65 66 67 68 67 67 68 69 69 70 71 72 74 75 76 77 78 79 80 81 81 83 84 83 84 86 87 86 86 85 87 86 84 83 82 82 78 79
62 63 65 66 67 66 65 63 64 64 66 69 70 70 72 74 76 78 80 82 83 84 85 86 86 87 88 89 90 92 92 91 93 93 93 91 92 92 91 91 91 92 90
60 61 62 63 65 66 66 65 65 66 66 68 70 71 73 76 78 80 83 85 87 89 90 92 92 93 94 95 95 95 96 95 94 94 94 94 93 92 92 91 93 94 94
62 62 63 62 64 65 66 68 69 69 69 72 73 75 78 81 83 85 87 89 91 93 95 96 97 96 96 95 94 93 92 93 93 93 92 93 93 93 91 92 92 91 91
66 65 65 66 66 66 68 70 71 71 72 74 77 79 83 86 88 89 91 92 93 94 95 96 96 97 98 100 100 99 100 100 100 100 99 98 96 97 97 96 96 96 94
66 67 67 68 68 68 69 70 71 72 73 76 78 80 80 79 78 78 79 79 78 77 76 76 78 79 84 87 88 89 92 95 98 98 100 101 101 101 101 99 98 100 99
68 68 69 69 68 69 69 69 69 70 71 71 71 70 69 69 70 71 72 73 74 73 72 70 71 74 76 79 82 84 85 86 86 84 87 89 90 91 91 91 89 87 89
68 68 68 68 67 64 63 63 63 64 65 65 67 70 71 70 70 69 65 63 64 60 56 55 54 57 58 61 67 71 74 76 77 78 81 88 90 91 91 90 91 88 89
65 64 61 59 58 58 59 60 61 64 67 68 66 64 61 57 56 56 55 56 58 54 53 52 51 51 51 54 58 58 57 58 62 62 63 65 69 77 81 86 86 90 92
Wind_Direction
289 291 293 295 296 296 297 299 297 297 298 298 291 291 295 284 273 274 275 275 273 269 270 273 276 281 278 275 273 279 283 285 288 294 300 303 302 304 304 306 301 295 293
287 287 292 292 296 296 295 296 297 294 294 294 290 290 291 282 269 270 272 276 279 278 270 267 268 269 270 271 272 278 282 282 279 278 283 290 292 292 290 292 294 293 290
282 285 291 291 294 292 296 297 296 295 292 290 287 286 283 279 264 268 272 272 275 274 274 270 267 266 265 267 272 275 277 276 276 276 277 280 284 285 285 280 280 279 281
284 285 288 290 293 290 292 296 295 293 291 289 286 280 276 266 257 260 263 263 267 272 274 274 270 270 267 266 268 270 272 274 278 275 276 278 284 283 282 281 281 274 272
284 285 286 287 289 288 292 294 295 292 291 290 285 280 270 263 254 258 261 263 268 269 269 268 273 275 272 271 272 275 277 278 277 279 277 279 284 286 281 278 280 278 272
281 284 286 287 287 285 292 292 289 288 290 290 288 283 277 274 268 265 268 267 269 266 262 259 264 272 275 272 269 271 270 271 270 272 276 280 284 282 278 278 279 276 276
278 283 284 284 283 284 292 289 284 288 291 289 289 288 286 284 279 275 276 271 270 267 259 259 263 261 265 269 271 272 271 268 272 275 278 279 280 277 275 275 277 275 273
279 283 284 283 281 282 291 288 283 285 287 287 288 287 284 283 283 281 277 273 273 273 265 265 266 270 270 267 267 270 271 270 270 272 274 276 279 275 272 271 271 273 274
278 283 282 281 280 281 286 289 287 283 283 285 285 285 285 285 285 283 283 282 279 276 273 267 266 270 269 267 266 266 267 268 269 272 274 278 279 277 273 269 268 270 273
276 279 278 277 277 277 281 287 287 286 284 281 282 282 283 283 283 284 283 282 282 283 281 276 275 273 272 270 267 268 270 270 273 275 277 278 278 277 278 277 274 273 273
271 273 272 272 270 272 275 280 284 286 285 282 281 281 282 282 282 282 283 282 281 281 282 281 280 279 279 276 273 271 273 273 273 275 275 273 277 277 279 278 278 279 280
265 267 268 269 268 269 269 272 276 279 281 281 280 280 280 280 282 282 281 281 281 281 282 282 282 282 282 281 278 275 274 275 275 275 276 275 273 272 275 275 277 278 278
264 265 266 267 268 268 269 270 272 274 277 278 277 277 277 277 278 280 280 279 280 280 278 279 281 282 283 283 282 282 278 278 278 278 278 278 276 271 272 273 271 271 275
264 264 264 264 265 265 267 269 270 271 273 276 275 275 275 275 274 274 274 275 275 275 275 276 277 277 278 277 277 278 279 279 278 278 279 278 278 275 273 273 271 270 271
267 267 268 268 268 266 266 267 269 270 272 273 274 274 274 274 274 275 275 275 274 273 272 272 273 273 272 272 273 274 274 274 275 276 275 275 274 272 273 273 273 272 272
266 268 270 271 269 270 269 269 269 269 269 271 272 273 273 274 274 275 274 273 273 272 273 272 270 270 271 272 271 270 270 270 270 271 272 271 270 270 271 270 272 271 271
269 269 268 268 269 269 270 271 272 272 273 273 273 274 273 273 273 272 273 274 273 271 270 271 271 273 270 269 269 268 268 267 268 268 267 267 266 267 267 268 266 270 270
273 272 273 274 275 274 274 275 275 274 275 276 275 275 275 273 273 273 273 272 272 271 270 269 269 267 267 268 266 265 265 266 267 267 267 267 265 265 265 265 265 262 264
276 276 275 275 275 275 275 276 276 276 276 275 274 274 274 274 273 272 273 272 272 271 271 269 269 268 267 267 268 269 267 266 267 267 266 266 265 264 264 265 265 266 265
279 279 279 278 277 276 277 276 276 276 277 277 276 275 275 274 273 273 273 273 272 271 270 270 269 269 269 269 269 270 271 271 270 270 270 269 268 266 266 266 265 264 264
280 280 280 281 281 279 278 278 276 276 276 277 276 276 276 275 274 274 272 271 271 271 272 272 274 275 276 275 274 274 273 272 272 272 271 270 271 270 270 271 270 268 266
283 283 282 281 282 283 282 280 279 279 277 276 276 276 276 275 276 276 277 277 277 277 276 276 275 274 273 273 273 272 272 272 272 272 271 271 270 269 269 269 268 267 266
284 283 284 286 285 285 284 283 281 280 281 282 280 281 282 283 284 283 284 284 284 284 283 282 279 278 276 275 274 272 270 269 268 268 268 269 269 269 270 269 268 267 267
286 284 284 286 285 285 284 285 285 284 284 284 285 286 288 289 289 289 289 288 286 284 282 281 280 277 275 275 274 272 271 270 269 269 268 266 266 266 266 267 267 266 266
284 284 284 283 284 285 285 285 284 285 289 290 291 292 291 290 290 288 287 286 288 290 287 284 282 280 279 280 278 276 273 271 269 268 267 268 266 265 265 264 265 266 266
281 281 281 283 285 285 286 289 290 290 290 291 291 290 290 291 292 294 295 296 298 298 297 294 291 286 282 281 281 281 280 278 273 270 266 265 267 267 265 265 266 266 267